Zurück zum Katalog

CZ-6A DEB

AktivPO
NORAD 55186·DEBRIS·🇨🇳 China

Gestartet Nov 11, 2022 von Taiyuan Satellite Launch Center

Loading…

Nächste Überflüge (nächste 24 Stunden)

TLE

AktuellSource: Space-Track

Epoche: Sep 14, 2026, 02:52 UTC

1 55186U 22151VB  26257.11992260  .00004681  00000-0  91419-3 0  9994
2 55186  98.6390 323.8916 0067348  16.3864 343.9492 14.61999358194586

Verfolge CZ-6A DEB in Echtzeit mit AllMySat

Download on the App Store